World > North America > United States > Iowa > Bondurant  

Bondurant, IA Hourly Weather Updates

Feedback E-mail the Weather

Quick Clicks

Bondurant, IA Weather Maps

°F °C°F °C
Bondurant Weather Map
UTC Time: 6/19/2024, 16:15
Your Time:

Bondurant, IA Regional Weather

Expires:202406191700;;300633
ASUS43 KEAX 191615
RWREAX

WEATHER ROUNDUP FOR EASTERN KANSAS AND NORTHWEST MISSOURI
NATIONAL WEATHER SERVICE KANSAS CITY/PLEASANT HILL MO
1100 AM CDT WED JUN 19 2024


IAZ060-094-KSZ022-034>040-054-083-096-NEZ052-066-093-191700- 
...KANSAS...SOUTHEAST NEBRASKA AND IOWA...
  
CITY           SKY/WX    TMP DP  RH WIND       PRES   REMARKS
TOPEKA         LGT RAIN  71  68  90 NW5       30.19R FOG              
MANHATTAN      CLOUDY    72  68  87 VRB5      30.18R                  
EMPORIA        RAIN      72  70  93 E8        30.16S FOG              
OTTAWA         CLOUDY    73  72  94 NE3       30.15S                  
CHANUTE        PTSUNNY   81  71  71 S15G25    30.16R                  
SALINA         CLOUDY    72  66  81 CALM      30.19S                  
WICHITA        CLOUDY    71  68  90 NW8       30.19R                  
OMAHA          CLOUDY    68  61  78 N10       30.23R                  
LINCOLN        CLOUDY    69  57  65 NE14      30.24R                  
FALLS CITY     CLOUDY    72  69  90 N6        30.19R                  
LAMONI         CLOUDY    72  70  93 CALM      30.21R                  
DES MOINES     LGT RAIN  71  67  87 N7        30.22R                  

$$

  

SKY/WX - Weather  TMP - Temperature  DP - Dew Point  RH - Humidity
WIND - Wind Direction/Speed PRES - Barometric Pressure VSB - Visibility
WCI - Wind Chill Index E13G22 Wind - East Wind 13 mph/Gusts of 22 mph

Trending Headlines

Trending Entertainment Headlines

Bondurant Radar Loop

Use the map search tool if you want to place a location marker on the radar map...

Bondurant Quick Facts

National Two Day Weather Forecast


E-mail the Bondurant Weather Forecast

Voice your opinion or tell us about page issues...